Location: Boston
(42.3580°N, 71.0600°W)
Time: 07:14:47
(UTC-04:00)

ISS - Pass Details

Date: 08 October 2017
Orbit: 401 x 408 km, 51.6° (Epoch: 25 October)

Event Time Altitude Azimuth Distance (km) Brightness Sun altitude
Rises 19:49:32 0° 307° (NW) 2,329 1.1 -18.6°
Reaches altitude 10° 19:51:50 10° 321° (NW) 1,469 -0.3 -19.0°
Enters shadow 19:54:28 26° 13° (NNE) 850 -2.3 -19.5°
